Powrót do katalogu

STARLINK-11619

AktywnyŁącznośćVLEO
NORAD 63272·PAYLOAD·🇺🇸 United States

Wystrzelony Mar 15, 2025 z Cape Canaveral Space Force Station

Loading…

Następne Przeloty (najbliższe 24 godziny)

TLE

ŚwieżeSource: CelesTrak SupGP

Epoka: Sep 15, 2026, 02:40 UTC

1 63272C 25053H   26258.11159722 -.00086049  00000+0 -66796-3 0  2589
2 63272  43.0011  50.4902 0001781 268.2586 329.9004 15.70894171    16

Śledź STARLINK-11619 w czasie rzeczywistym z AllMySat

Download on the App Store